Location: Bremen
(53.0830°N, 8.8000°E)
Time: 14:22:58
(UTC+01:00)

Envisat - Pass Details

Date: 10 November 2025
Orbit: 761 x 762 km, 98.4° (Epoch: 13 December)

Event Time Altitude Azimuth Distance (km) Brightness Sun altitude
Rises 04:53:32 0° 8° (N) 3,240 6.4 -24.9°
Reaches altitude 10° 04:56:15 10° 354° (N) 2,309 5.4 -24.5°
Enters shadow 04:57:21 15° 345° (NNW) 1,999 5.0 -24.3°
